ONEWEB-0317, 49103

Orbit data source: Space-Track

ONEWEB-0317, 49103 is a payload satellite owned by One Web (NAA) (UK) in LEO that was launched on Sat, 21 Aug 2021 UTC via a SOYUZ-2-1B launch vehicle from the Tyuratam Missile And Space Complex (TTMTR). Payload-class satellites include a variety of spacecraft equipped with specific instruments for various scientific and technological missions. These include communications satellites like Starlink; space stations such as the ISS; scientific satellites like the Hubble; Earth observation satellites from companies like Planet Labs, Umbra, and HawkEye 360; GPS; miniature CubeSats for education and research; and military/defense satellites.

Loading next visibility...
Identifier
49103, 2021-075AE
Orbit
LEO
Country
Flag of UKUK
Related business
Manufacturer
One Web
Mission
Operational Commercial Communications
Bus & Motor
ARROW, Unknown motor
Mass
148 kg wet, ~140 kg dry
Launch date (UTC)
2021-08-21 (5 years ago)
Launch vehicle
SOYUZ-2-1B
Launch site
Tyuratam Missile And Space Complex (TTMTR)
Object type
Payload
Rocket body
Debris
Shape & HBR
Trap Box + 2 Pan, 6.7 m
Radar Cross Section
3.464 m², Large (>1 m²)

Expand to show TLE details & history
Last TLE update: 8 hours ago

TLE from 8 hours ago
0 ONEWEB-0317
1 49103U 21075AE  26130.16954388  .00000361  00000-0  96741-3 0  9998
2 49103  87.8981 358.2254 0001430  59.0772 301.0497 13.12443550230206
Epoch: 2026-05-10T04:04Z
TLE epoch observation values (Epoch: 2026-05-10T04:04:08.591Z)
Latitude
-0.00001°
Longitude
69.21312°
Altitude
1,216.052 km
Speed
7.246 km/s
True Right ascension
23h 52m 54s
True Declination
0° 00' 00"
Sunlit
Object was in daylight at epoch
Visualization orbit readout
Latitude
Unknown
Longitude
Unknown
Altitude
Unknown
Speed
Unknown
Apparent Right ascension
Unknown
Apparent Declination
Unknown
Sunlit
N/A
Visualization observer readout
Local Sidereal Time
19:48:22
Azimuth
Unknown
Elevation
Unknown
Doppler factor
Unknown
Orbital elements
Apogee altitude
1,211.923 km
Perigee altitude
1,209.753 km
Semi-major axis
7,588.975 km
Eccentricity
0.00014
Inclination
87.8981°
RAAN
358.2254°
Arg. of periapsis
59.0772°
True anomaly
301.03566°
Mean anomaly
301.0497°
Eccentric anomaly
301.04268°
Mean motion
3.28298 °/min
Orbital period
109.66 mins
BSTAR
0.00096741
Loading maneuver chart data...
Computing Atmospheric mass density...
Loading historical data...
Loading historical data...
Loading historical data...
Loading historical data...
Loading historical data...
Loading historical data...
Loading historical data...

Documentation

Showing up to 5 results
|